This is the latest recevied weather packets stored in our database for station/object 9A7DI-13. If no packets are shown the sender has not sent any weather packets the latest 10 day(s).
| Time | Temp. | Humidity | Pressure | Rain* | Wind** | Luminosity | Snow |
|---|---|---|---|---|---|---|---|
| 1788445003 | 30.56° C | 27% | 1026 hPa | - | - | - | - |
| 1788444403 | 30.56° C | 26% | 1026 hPa | - | - | - | - |
| 1788443803 | 31.11° C | 26% | 1026 hPa | - | - | - | - |
| 1788443203 | 30.56° C | 27% | 1026.3 hPa | - | - | - | - |
| 1788442603 | 30.56° C | 28% | 1026.3 hPa | - | - | - | - |
| 1788442003 | 30° C | 28% | 1026.5 hPa | - | - | - | - |
| 1788441403 | 30.56° C | 29% | 1026.5 hPa | - | - | - | - |
| 1788440803 | 30.56° C | 28% | 1026.6 hPa | - | - | - | - |
| 1788440203 | 30.56° C | 30% | 1026.6 hPa | - | - | - | - |
| 1788439603 | 30.56° C | 30% | 1026.7 hPa | - | - | - | - |
| 1788439005 | 30.56° C | 28% | 1026.7 hPa | - | - | - | - |
| 1788438403 | 30° C | 29% | 1026.9 hPa | - | - | - | - |
| 1788437803 | 30.56° C | 30% | 1026.8 hPa | - | - | - | - |
| 1788437203 | 30.56° C | 29% | 1027 hPa | - | - | - | - |
| 1788436603 | 30.56° C | 30% | 1027 hPa | - | - | - | - |
| 1788436003 | 30.56° C | 29% | 1027.2 hPa | - | - | - | - |
| 1788435403 | 30.56° C | 28% | 1027.3 hPa | - | - | - | - |
| 1788434803 | 30.56° C | 28% | 1027.4 hPa | - | - | - | - |
| 1788434203 | 30.56° C | 29% | 1027.5 hPa | - | - | - | - |
| 1788433603 | 30.56° C | 28% | 1027.5 hPa | - | - | - | - |
| 1788433003 | 31.11° C | 30% | 1027.6 hPa | - | - | - | - |
| 1788432403 | 31.11° C | 29% | 1027.7 hPa | - | - | - | - |
| 1788431803 | 31.11° C | 32% | 1027.9 hPa | - | - | - | - |
| 1788431203 | 30.56° C | 29% | 1028 hPa | - | - | - | - |
| 1788430603 | 30° C | 32% | 1028.2 hPa | - | - | - | - |
* Rain since midnight (hover to see other rain measurements)
** Current wind speed in m/s (hover to see current wind gust speed)